Theta_e
327 328 329 330 331 332 333 333 334 333 333 332 332 332 330 330 331 331 331 330 330 331 330 330 330 330 329 330 330 329 328 329 330 331 332 331 331 332 332 333 332 332 332 331 330 331 331 330 329 329 330 330 329 328 328 328 327 325 324 323 323 322 322 322 319 315 314 316 318 317 313 311 309 305 304 307 307 305 304 302 302 303 304 305 306
326 328 330 330 329 331 333 334 333 333 331 331 332 331 330 330 331 331 330 330 330 330 330 330 330 329 329 329 329 329 328 328 329 330 330 330 330 331 332 332 332 332 331 330 330 331 331 330 329 329 329 330 330 328 328 328 327 325 323 323 323 322 322 322 320 316 314 314 315 315 313 312 310 306 305 307 307 305 304 304 303 304 305 306 306
326 327 329 330 330 330 331 332 332 333 331 331 331 331 330 330 330 330 330 329 329 329 329 329 329 329 329 329 329 328 328 328 328 328 328 328 330 330 331 331 331 331 331 330 329 331 331 330 329 329 328 329 328 328 328 328 327 325 323 323 323 322 322 322 320 318 315 314 314 314 313 313 311 309 306 307 307 305 305 305 304 304 305 306 307
325 326 327 329 330 329 329 330 332 333 331 331 331 330 330 330 329 329 330 329 329 329 329 328 329 329 329 329 329 328 328 328 327 327 327 328 329 329 330 330 330 331 330 329 329 331 331 330 329 328 328 328 327 326 327 327 327 326 325 324 323 322 322 322 320 319 317 315 315 315 314 313 312 310 307 306 306 306 305 305 304 304 305 306 307
324 325 326 328 329 329 328 328 330 331 329 330 330 329 329 330 329 329 330 329 329 329 329 329 329 328 327 327 328 328 327 327 327 326 327 328 328 328 329 329 329 330 330 329 330 330 330 329 329 328 328 328 326 325 325 325 326 326 326 326 325 324 323 322 320 319 318 317 315 314 313 312 312 310 308 307 307 306 305 305 304 304 304 305 306
323 324 325 326 328 330 329 327 328 329 328 328 329 328 328 328 328 329 329 329 329 329 329 328 328 327 326 327 327 328 327 326 326 326 326 327 326 327 327 327 328 328 329 329 329 330 330 329 328 328 328 326 325 325 324 324 324 324 323 325 325 324 322 322 321 318 317 317 315 313 313 313 312 310 309 308 307 307 306 305 305 305 304 305 306
321 323 324 325 326 327 328 327 328 329 329 328 327 328 328 328 327 328 329 329 329 329 328 328 328 327 326 326 327 327 326 325 325 324 324 324 324 325 326 326 326 327 327 327 329 330 330 329 327 327 327 326 325 323 321 321 322 321 321 322 322 321 319 319 319 317 316 315 314 313 313 313 312 311 310 309 307 307 306 305 305 307 307 307 307
319 321 322 324 325 325 326 327 327 328 328 327 327 328 329 328 327 326 327 328 329 328 328 327 326 326 326 326 325 326 325 325 324 322 322 322 323 323 324 324 325 326 326 327 328 329 329 328 326 326 325 325 323 321 319 319 319 319 319 319 319 318 317 316 316 315 315 314 313 313 313 312 311 310 309 309 307 307 307 306 306 308 309 309 309
316 319 321 322 325 325 325 326 326 327 327 327 327 328 328 327 326 326 325 325 327 327 327 325 324 323 325 325 325 324 324 324 323 321 320 322 323 323 323 323 324 325 326 327 327 328 328 326 325 324 323 322 320 319 319 319 318 318 318 317 317 317 316 314 314 314 314 313 312 312 311 311 311 310 309 309 309 308 308 307 307 309 309 309 309
312 315 317 320 323 325 325 326 326 326 326 326 327 327 326 326 326 326 325 323 325 326 325 322 321 322 324 324 324 324 322 322 321 320 320 321 321 322 322 323 324 325 325 327 327 327 326 324 323 322 321 319 319 319 319 319 318 318 318 317 317 316 315 314 313 313 312 312 312 312 311 310 310 309 309 309 309 308 308 308 308 309 309 308 309
309 311 314 317 320 323 325 326 326 325 325 326 327 326 325 326 325 326 326 323 323 326 324 321 320 321 322 324 324 323 322 322 321 320 320 320 319 320 320 321 323 324 325 326 325 324 323 322 320 320 319 318 319 319 319 319 319 319 319 319 318 318 318 317 316 315 314 314 315 314 314 313 314 313 313 313 313 313 312 311 309 308 308 307 308
308 310 312 314 318 321 324 325 326 326 325 325 326 325 325 325 324 325 326 323 322 325 324 321 320 320 322 323 323 322 322 322 321 320 319 319 319 319 319 321 323 324 325 324 322 321 321 320 319 319 319 319 319 319 319 319 319 319 319 318 318 318 318 318 318 318 317 317 317 317 316 317 317 317 317 317 318 318 317 316 314 312 311 310 309
307 309 310 312 315 318 322 324 326 326 325 324 326 325 324 324 323 324 324 321 320 323 323 321 320 320 321 322 322 321 321 321 321 319 317 317 318 318 320 322 323 324 324 323 321 320 320 319 319 319 319 319 318 318 319 319 318 318 318 318 318 318 318 318 318 318 318 318 317 317 317 318 318 318 318 318 318 318 318 319 319 318 317 316 316
306 307 308 310 313 315 318 321 323 324 324 324 324 324 323 322 321 322 321 318 318 321 321 319 319 319 319 320 321 320 320 321 320 318 317 318 318 318 320 322 323 323 322 321 320 320 319 318 318 317 317 317 316 317 317 317 317 318 318 318 318 319 319 319 319 318 318 318 318 318 318 318 318 318 318 318 318 318 318 318 319 319 318 317 317
306 306 307 308 310 313 315 317 320 322 323 323 323 322 322 320 319 319 318 315 316 319 318 316 317 317 318 319 319 319 320 319 319 318 318 318 318 319 320 322 321 321 319 319 319 318 318 317 317 317 316 317 317 318 318 318 319 319 320 320 320 320 320 319 319 319 319 318 318 318 317 317 317 316 316 316 316 316 317 318 318 318 317 316 315
305 306 306 307 308 310 312 313 315 317 318 320 320 319 318 317 315 315 313 312 313 314 315 314 315 315 317 318 318 319 319 319 319 318 318 318 319 319 320 320 320 319 319 318 318 318 319 319 318 318 318 319 319 320 320 320 320 320 320 320 320 320 319 319 319 319 318 318 317 316 316 315 314 312 311 310 309 310 311 314 316 316 316 316 316
304 305 306 306 306 308 310 311 311 312 312 314 314 314 313 312 311 311 310 309 309 309 311 312 312 314 316 317 318 319 318 319 319 319 319 319 319 319 320 320 319 319 319 318 319 319 319 318 319 319 319 320 320 320 320 320 319 320 319 319 319 319 318 317 316 315 314 313 312 311 310 309 308 307 305 305 305 305 305 307 310 313 314 315 315
303 304 306 306 306 307 308 309 309 309 308 308 308 309 309 308 308 308 308 307 307 306 308 310 311 312 314 315 317 318 318 318 319 319 319 319 319 319 319 320 319 319 319 318 318 318 317 317 316 317 318 318 319 318 318 317 317 318 317 317 317 316 315 314 312 311 308 306 305 304 303 304 304 304 305 306 306 306 306 307 309 310 312 313 313
302 303 305 307 307 306 307 308 308 308 307 306 306 306 306 306 306 306 306 305 305 305 306 308 309 309 311 313 314 316 317 317 318 319 319 319 320 320 320 319 319 318 318 317 316 316 316 316 316 316 316 316 316 316 315 315 315 315 315 314 313 312 311 310 309 308 306 304 302 301 302 304 305 306 306 306 305 305 305 306 308 309 311 312 312
302 303 305 307 307 307 307 307 307 307 307 306 305 304 305 305 305 306 305 303 303 303 303 304 305 305 307 309 311 313 314 315 316 317 318 319 319 319 318 318 316 315 315 315 314 314 315 316 316 317 316 314 314 314 313 313 313 312 311 310 308 306 304 302 302 302 302 301 301 302 304 306 306 306 305 304 303 303 302 303 304 307 309 311 311
302 303 304 306 307 306 306 306 306 307 307 307 306 305 304 304 304 304 304 302 302 301 301 301 302 302 303 305 306 308 310 312 313 314 315 316 316 316 316 315 314 313 313 313 313 314 315 315 316 317 316 314 312 312 312 311 310 309 307 305 302 300 299 298 298 299 299 300 303 305 306 306 305 305 304 303 303 302 302 301 301 303 307 309 309
302 302 303 304 305 306 306 306 306 306 306 308 308 307 307 305 304 304 304 305 304 303 301 302 302 301 301 302 302 303 305 308 310 312 313 313 313 313 313 313 313 313 313 312 312 312 312 311 312 313 312 311 309 308 308 306 305 304 302 300 299 298 298 298 299 300 302 304 306 307 306 305 305 304 303 303 302 302 302 302 302 303 306 307 307
300 300 301 302 303 305 305 306 306 306 305 306 307 307 307 307 305 304 304 304 303 302 301 301 302 301 300 300 300 300 301 302 304 306 308 309 311 312 312 312 312 312 311 310 309 308 307 307 307 307 305 304 302 302 301 301 300 300 300 299 299 300 300 300 302 304 306 307 306 305 304 304 303 303 302 302 302 302 303 303 304 305 305 306 305
298 298 298 299 301 303 304 305 306 306 305 305 305 305 305 305 304 304 303 303 302 300 299 300 300 299 299 299 299 299 299 299 300 301 302 304 305 307 308 308 308 308 309 307 305 304 303 303 302 301 300 300 300 301 301 302 302 303 303 303 303 303 303 303 305 306 306 305 304 303 302 302 302 301 301 301 302 303 304 304 304 304 304 304 303
298 297 297 298 299 300 302 303 304 305 305 305 305 304 303 303 303 303 302 302 301 300 299 299 299 298 298 298 298 298 298 298 298 299 299 300 301 302 302 303 303 303 303 302 300 300 299 299 299 300 300 301 302 303 303 304 304 304 304 304 304 305 305 305 305 305 304 303 302 302 301 300 300 300 300 300 301 302 304 304 303 303 303 302 301
299 298 297 297 298 299 300 300 301 303 303 304 304 305 304 303 302 302 302 302 302 300 300 299 299 299 298 298 297 298 297 297 297 298 298 299 299 299 299 299 299 299 299 299 298 299 299 300 301 302 302 302 303 303 303 303 303 304 304 305 305 305 305 304 304 303 302 301 300 300 299 299 299 299 299 300 300 302 303 303 302 302 301 301 299
299 299 298 297 297 297 298 298 299 300 301 302 303 303 303 303 303 303 303 303 303 303 302 302 302 302 301 299 298 298 297 297 297 297 297 297 297 298 297 297 298 298 299 299 300 300 301 301 302 302 302 302 302 303 303 303 303 303 303 303 303 303 303 302 302 301 300 300 299 299 298 298 298 298 299 299 300 301 301 301 301 301 300 300 300
300 299 299 298 297 297 296 297 298 298 299 300 301 301 301 302 303 302 302 303 303 303 303 302 301 300 299 298 298 298 297 297 297 297 297 297 297 297 297 298 299 300 300 300 300 301 301 301 302 302 302 302 302 302 302 302 302 302 302 301 301 301 300 300 300 299 299 298 298 298 298 298 298 298 299 299 300 300 300 300 300 300 300 300 299
299 300 300 300 299 297 296 296 296 297 297 298 298 298 299 300 301 302 301 302 303 303 302 301 299 298 297 297 297 298 298 298 298 298 297 297 297 298 299 300 300 300 300 300 300 300 300 301 301 301 301 301 300 300 300 300 300 300 299 299 298 298 298 298 298 298 297 297 297 297 297 298 298 298 298 298 298 298 298 298 298 298 297 297 297
299 300 299 300 300 299 298 296 295 295 295 295 296 297 297 297 298 300 300 301 301 301 300 299 298 297 297 297 297 298 298 298 298 298 298 298 299 299 300 300 300 300 300 300 300 300 300 300 300 300 299 299 299 298 298 298 298 298 297 297 297 297 297 297 296 296 296 297 297 297 297 297 296 296 296 296 296 296 296 296 296 296 295 295 295
299 299 299 299 299 300 299 298 297 295 295 295 295 295 296 296 296 296 297 298 298 297 297 297 297 297 297 298 298 298 298 298 299 299 299 299 299 300 300 300 300 300 300 300 300 300 299 299 298 298 298 298 297 297 297 296 296 296 296 296 296 296 296 296 296 296 296 296 296 296 295 295 295 295 295 294 294 294 294 294 295 295 295 294 294
299 299 299 299 299 299 299 299 299 297 296 295 295 295 295 295 295 295 296 296 296 296 296 297 297 297 298 298 298 298 298 298 298 298 299 299 299 299 299 300 300 299 300 300 300 299 298 298 297 297 297 296 296 295 295 295 295 295 295 295 295 295 295 295 295 295 295 295 295 294 294 294 294 293 293 293 293 293 293 293 293 293 294 294 294
297 298 298 298 298 298 299 299 299 299 298 297 296 296 296 295 295 294 295 295 296 296 296 297 297 297 298 298 298 298 298 298 297 298 298 298 298 299 299 299 299 299 299 300 299 298 297 297 296 296 296 295 294 294 294 294 294 295 295 295 295 295 295 295 295 294 294 294 293 293 293 293 293 292 292 292 292 292 292 292 292 293 293 293 293
296 297 298 298 297 297 298 298 299 299 299 298 297 297 296 296 295 295 295 295 295 296 296 296 296 297 297 297 297 297 297 297 297 297 297 297 297 297 297 297 297 297 298 298 298 297 296 296 295 295 295 294 294 294 294 294 294 295 295 295 295 294 294 294 294 293 293 293 293 293 292 292 292 292 292 292 292 292 292 292 292 292 293 293 293
296 296 297 297 297 297 297 298 298 299 299 298 298 297 297 296 296 296 296 296 295 295 295 295 296 296 296 296 296 296 296 296 296 296 296 296 296 296 296 296 296 296 296 296 296 295 295 295 294 294 294 294 294 294 294 294 295 295 295 294 294 294 293 293 293 293 293 293 292 292 292 292 292 292 292 292 292 292 292 292 292 292 292 292 293
297 297 297 297 297 297 297 298 298 298 298 298 297 297 297 296 296 296 296 295 295 295 295 295 295 295 295 295 295 295 295 295 295 295 295 295 295 295 295 294 294 294 294 294 294 294 294 294 294 293 293 293 293 293 294 294 294 294 294 294 293 293 293 292 293 293 293 292 292 291 291 291 291 291 292 292 292 292 292 292 292 292 292 292 293
297 297 297 297 297 297 297 297 298 298 298 298 297 297 297 296 296 296 296 296 295 295 295 295 295 295 294 294 294 294 294 294 294 294 294 294 294 294 294 293 293 293 293 293 293 293 293 293 293 293 293 293 293 293 293 293 293 293 293 292 292 292 292 292 292 292 292 292 291 291 291 291 291 291 292 292 292 292 292 292 292 292 292 292 292
298 297 297 297 297 297 297 297 297 297 298 298 297 297 297 297 296 296 296 296 295 295 295 295 295 295 294 294 294 294 294 294 293 293 293 293 293 293 293 292 293 293 293 293 293 293 293 293 293 293 293 293 293 293 292 292 292 292 292 292 292 292 292 292 291 291 291 292 291 291 291 291 291 291 291 291 292 292 292 292 292 292 292 292 292
298 298 297 297 296 296 297 297 297 297 297 298 297 297 297 297 296 296 296 296 295 295 295 295 295 295 294 294 294 293 293 293 293 292 292 292 292 292 291 291 291 292 292 292 293 293 293 292 292 292 292 292 292 292 292 292 292 292 292 292 292 292 291 291 291 290 291 291 291 291 291 291 291 291 291 291 292 292 292 291 291 291 291 291 291
298 298 298 298 297 297 297 297 297 297 297 297 297 297 297 297 297 296 296 296 296 295 295 295 295 294 294 294 294 293 293 293 293 292 291 291 291 291 291 291 291 292 292 292 292 292 292 292 292 292 292 292 292 292 291 291 291 291 291 291 291 291 291 290 290 290 290 290 290 291 291 291 291 291 291 291 291 291 291 291 291 291 291 291 290
299 298 298 298 298 297 297 297 296 297 297 297 297 297 297 297 297 297 296 296 295 295 296 295 295 294 294 293 293 293 293 293 292 292 291 291 291 290 290 290 291 291 292 292 292 292 292 292 292 292 292 292 291 291 291 291 291 291 290 290 290 290 290 290 290 290 290 290 290 290 291 291 291 290 290 290 290 291 291 290 290 290 290 290 290
298 299 298 298 298 298 297 297 297 296 296 297 297 297 297 297 297 296 296 295 295 295 295 295 294 294 293 293 293 293 293 293 292 292 291 291 291 290 290 290 291 291 292 292 292 292 292 292 292 292 292 292 292 292 291 291 291 290 290 290 290 290 290 290 290 290 290 290 290 290 290 290 290 290 290 290 290 290 290 290 290 290 290 290 290
298 298 298 298 298 297 297 297 296 296 296 296 296 296 297 297 297 296 295 295 295 295 295 294 294 294 293 293 293 293 293 293 292 292 292 291 291 291 291 291 291 291 291 291 292 292 292 292 292 292 292 292 291 291 291 291 290 290 290 290 290 290 290 290 290 290 290 290 290 290 290 290 290 290 290 290 290 290 290 290 290 290 290 290 290
298 298 298 298 298 297 296 296 296 296 296 296 296 296 296 297 296 295 295 295 295 295 295 294 294 293 293 293 293 293 292 292 292 292 291 291 291 291 291 291 291 291 291 291 291 291 291 292 292 292 292 291 291 291 291 290 290 290 290 289 290 290 290 290 290 290 290 290 290 290 290 290 290 290 290 289 289 289 289 289 290 290 289 289 289
298 298 298 298 298 298 296 296 296 296 296 296 295 295 295 296 296 295 295 295 295 295 295 294 294 294 293 293 293 293 292 292 292 291 291 291 291 291 291 291 291 291 291 291 291 291 291 292 292 292 291 291 291 291 291 291 290 290 289 289 289 290 290 290 290 290 290 290 290 289 289 289 289 289 289 289 289 289 289 289 289 289 289 289 289
297 297 297 298 298 298 297 296 296 296 296 296 295 295 295 296 296 296 296 295 295 295 295 294 294 294 294 293 293 293 292 292 292 291 290 290 290 290 291 292 292 291 291 291 291 291 291 291 291 291 291 291 291 291 291 290 290 289 289 289 289 289 289 289 289 289 290 289 289 289 289 288 288 289 288 288 288 288 288 288 288 288 289 289 289
297 297 297 297 297 298 297 296 296 296 296 295 295 295 296 296 296 296 296 295 295 295 294 294 294 294 294 294 293 293 292 292 292 291 290 290 289 289 289 290 291 292 291 291 291 291 291 291 291 291 291 291 291 291 290 290 289 289 288 288 289 289 289 289 289 289 289 289 289 289 288 288 288 287 287 288 288 288 287 287 287 288 288 288 288
297 297 297 297 297 297 297 297 296 296 295 295 294 295 296 296 296 296 295 295 295 295 295 294 294 295 295 294 294 293 293 292 292 291 291 290 290 289 288 288 289 291 291 291 291 291 291 291 291 291 291 291 290 289 289 288 288 287 287 287 288 288 288 289 289 289 289 289 288 288 288 287 287 286 285 286 286 286 286 286 286 286 287 287 288
297 297 297 297 297 297 297 297 297 296 296 296 295 295 295 296 296 296 295 295 295 295 295 294 294 295 295 295 294 294 293 292 292 292 291 290 290 290 289 288 288 288 289 290 290 290 290 290 290 290 290 290 288 287 287 287 287 287 287 287 288 288 288 288 288 288 288 288 288 287 287 287 286 284 283 284 285 285 285 285 284 285 286 286 287
297 297 297 296 295 295 295 295 296 296 296 296 296 295 295 295 296 296 296 295 295 295 295 294 294 295 295 295 294 294 293 293 292 292 292 291 290 290 290 289 288 287 287 288 288 288 288 288 288 288 288 287 287 287 287 287 287 287 287 287 287 287 287 287 287 287 287 287 286 286 286 285 284 282 282 283 284 284 283 283 284 285 285 286 287
296 296 296 294 294 294 295 295 295 294 295 295 295 295 295 295 295 295 295 296 295 295 295 294 295 295 294 294 294 294 293 293 292 292 292 291 291 290 290 289 288 288 287 288 288 287 287 287 287 287 287 287 287 287 288 288 288 287 287 287 287 287 287 287 287 286 286 286 285 285 285 284 282 281 281 283 283 282 282 283 284 285 285 286 286
Wind_Speed
11 15 17 20 22 21 20 20 20 20 20 20 20 20 21 22 23 24 25 26 25 24 24 23 22 22 20 20 20 19 18 17 16 17 17 17 17 16 17 17 16 14 14 14 14 15 15 14 14 14 14 14 14 15 17 18 19 22 23 22 18 12 13 16 8 5 11 14 14 15 12 12 15 16 16 15 14 13 12 12 12 12 12 12 11
7 10 14 19 21 20 19 19 19 19 19 19 20 21 22 22 22 24 26 26 25 25 24 23 22 21 20 19 20 19 18 17 16 17 17 16 17 17 17 17 16 15 14 14 15 15 15 15 14 14 14 14 13 13 16 17 18 21 22 23 22 17 14 15 12 9 11 13 15 16 14 13 16 17 17 17 15 14 14 13 14 14 14 14 13
11 11 12 15 18 20 20 20 20 20 20 21 22 23 24 23 22 25 27 26 27 26 24 23 22 22 20 19 19 19 17 17 17 17 17 16 16 17 17 17 16 16 15 15 15 16 15 15 14 14 14 14 13 13 15 17 18 19 21 23 24 22 18 17 15 13 13 15 17 18 16 15 16 18 18 18 16 15 15 14 15 16 17 17 17
12 12 12 13 16 19 19 19 21 23 23 24 25 25 25 24 24 26 28 28 28 26 24 24 23 22 22 20 19 19 18 17 17 17 16 16 16 17 17 16 16 16 16 15 15 16 16 16 15 14 14 15 14 13 13 15 18 20 22 23 25 25 23 22 19 16 16 17 18 19 18 16 16 17 18 18 18 17 17 17 17 17 18 19 20
13 13 12 12 14 18 18 17 19 22 22 21 23 25 25 25 27 29 30 29 29 27 25 25 25 23 21 20 20 20 19 18 18 17 16 16 16 16 16 15 15 15 15 14 15 15 15 15 15 14 13 14 15 13 11 14 16 18 20 23 25 25 25 26 24 20 19 19 19 19 18 17 17 17 18 19 19 19 19 19 19 19 19 21 22
14 14 14 13 14 17 18 17 18 21 21 20 19 20 22 25 27 29 30 31 29 28 28 27 26 24 21 21 21 20 19 19 17 16 16 16 15 15 15 15 14 14 14 14 14 15 15 14 14 15 14 14 14 12 11 13 15 16 18 20 23 23 23 25 26 24 22 21 19 18 19 19 19 18 18 19 20 21 22 21 21 21 21 22 23
16 14 14 15 15 15 16 18 20 22 23 22 19 20 23 26 26 27 29 32 31 29 29 28 26 24 23 22 20 20 20 19 17 16 15 15 16 17 17 16 15 14 14 14 14 16 16 13 11 13 13 13 13 12 12 15 18 18 18 19 20 19 17 19 23 24 23 20 18 18 19 20 21 20 18 18 19 21 22 22 23 23 24 24 24
18 15 12 13 15 15 17 21 22 22 22 21 20 22 26 28 28 26 26 30 32 29 28 28 27 25 24 22 20 21 21 19 18 16 14 14 15 17 18 18 16 15 14 13 14 15 15 11 9 12 13 12 13 11 10 12 15 16 16 16 16 14 13 16 20 22 21 19 17 17 17 19 20 19 16 14 16 21 23 24 25 25 25 25 25
19 17 14 12 14 15 17 21 22 20 21 21 20 24 27 27 29 27 23 24 29 31 28 27 26 25 25 23 21 22 20 19 19 17 13 12 12 13 16 17 17 16 13 12 12 13 13 10 10 13 13 13 14 11 8 8 11 14 14 12 12 13 14 16 18 18 18 16 14 13 14 16 17 18 16 16 17 19 20 21 24 26 26 26 27
22 20 18 14 11 13 16 19 20 21 22 22 22 24 27 27 27 28 26 23 25 30 30 27 26 26 26 24 22 22 20 19 20 18 15 13 12 13 14 15 16 16 13 12 11 12 12 11 12 15 15 15 15 12 10 9 10 11 11 9 9 10 11 12 12 13 13 11 10 9 10 12 13 14 16 17 17 17 17 18 22 24 23 23 26
25 23 22 18 12 8 13 17 18 20 23 23 24 25 27 29 27 29 31 27 25 30 31 27 27 26 25 25 23 21 21 20 20 17 16 15 13 13 13 15 17 16 14 13 12 13 15 15 16 17 17 16 16 15 14 14 14 14 13 11 10 9 8 8 6 5 5 4 4 4 4 4 3 4 7 8 10 12 14 17 20 21 18 16 19
27 27 25 22 16 8 9 15 18 20 22 24 26 25 26 29 28 28 31 28 26 30 31 28 27 26 25 24 23 22 22 21 19 17 16 16 15 13 13 15 17 17 16 16 16 16 19 20 20 19 18 17 17 16 16 16 15 15 14 13 12 10 9 8 8 7 5 5 5 4 3 3 4 3 1 1 3 5 8 10 12 14 15 14 16
29 28 28 25 20 13 5 11 18 21 21 23 27 27 27 28 28 28 29 27 27 30 30 28 27 26 25 25 23 23 23 22 20 18 16 16 15 14 13 16 19 19 18 19 18 18 20 21 21 20 19 17 16 16 16 15 13 12 11 10 9 8 7 6 6 6 5 4 4 2 1 2 2 2 3 4 6 8 9 10 10 10 10 12 15
30 29 29 28 24 18 10 3 12 18 21 23 25 27 28 26 25 26 27 25 27 30 29 27 27 26 25 25 24 22 22 22 21 19 16 15 14 14 15 17 19 19 19 20 20 20 20 20 20 20 18 17 16 15 15 14 13 11 10 9 7 6 6 5 5 4 4 4 3 3 2 3 3 3 4 6 7 9 10 11 11 10 10 11 13
31 31 30 30 27 22 16 9 1 10 18 23 25 26 27 25 24 26 28 26 28 30 29 27 27 25 24 24 23 22 21 22 22 20 18 16 15 15 17 19 19 19 19 20 20 20 19 18 19 19 18 16 15 14 13 12 12 11 10 9 8 6 5 4 3 2 2 3 3 3 3 4 5 5 5 6 7 9 9 9 10 10 11 13 14
32 33 33 31 28 26 21 15 10 6 11 20 23 24 24 24 23 25 26 25 26 28 28 26 25 25 24 23 23 22 21 21 21 20 19 18 17 18 19 20 21 21 21 20 20 20 19 18 19 19 18 16 14 12 11 9 9 9 8 8 7 6 5 4 3 1 2 2 3 3 4 5 6 7 8 8 8 9 8 9 9 9 11 12 14
31 32 32 30 28 26 24 20 16 14 12 15 20 22 23 24 23 23 24 24 24 25 27 26 24 24 24 24 24 24 22 21 21 21 20 20 19 20 21 22 22 22 21 20 20 20 19 18 17 16 16 15 13 11 9 7 6 6 6 5 5 4 3 3 2 2 2 2 2 3 4 5 6 7 8 8 8 8 8 9 9 9 10 10 11
29 29 29 29 27 25 25 23 21 19 17 16 18 23 25 24 23 24 25 26 25 24 26 27 24 23 24 23 24 25 24 22 22 23 23 22 22 23 23 22 22 20 20 20 19 18 18 16 14 14 13 12 10 8 6 5 5 5 4 4 4 3 3 3 2 1 0 1 2 2 3 3 3 3 5 6 6 7 7 7 8 9 10 10 10
26 26 26 26 26 25 25 24 22 21 20 18 18 23 28 28 26 26 27 27 27 25 26 28 27 25 24 23 22 23 23 21 21 22 23 22 22 24 24 24 22 20 19 19 16 14 13 12 11 11 10 9 7 6 4 3 4 4 3 2 1 2 3 3 3 4 4 3 2 2 3 3 3 4 5 6 7 9 9 9 8 8 9 10 11
22 23 25 25 25 25 25 24 22 21 21 21 21 24 28 29 29 29 28 28 28 26 26 28 29 27 25 24 23 22 21 19 18 19 21 22 22 22 23 23 22 19 15 13 11 9 9 9 8 7 6 6 5 4 3 2 1 1 0 1 1 2 3 3 3 3 3 2 2 3 3 4 5 6 7 9 10 11 12 12 11 10 9 9 9
21 23 24 25 25 24 23 23 21 21 22 24 25 26 27 27 28 31 31 29 28 27 27 29 29 28 27 26 25 23 21 19 17 16 17 18 18 17 15 14 13 11 10 9 10 11 12 12 11 10 8 5 3 2 2 1 2 2 3 3 3 3 2 1 2 2 1 2 3 4 5 6 7 8 9 10 12 13 14 15 14 12 11 9 8
20 21 22 24 24 23 22 21 21 21 22 24 26 26 26 26 27 29 30 29 28 26 26 27 28 27 27 26 25 23 21 19 17 15 14 13 12 10 10 10 10 11 12 13 13 13 12 11 10 9 7 5 3 3 3 3 4 4 4 4 3 3 2 2 2 2 4 7 8 8 8 8 8 9 10 12 13 13 14 14 13 12 11 9 8
19 20 22 22 22 22 21 20 20 20 20 22 24 24 23 23 24 25 27 28 28 25 24 25 25 26 25 24 23 22 20 19 18 16 15 13 11 10 11 11 11 12 14 14 13 12 10 8 7 6 5 4 3 2 2 2 3 3 3 3 3 3 4 4 5 8 10 10 10 10 10 10 9 10 10 11 11 11 10 10 10 9 9 8 7
23 23 22 21 21 21 21 20 19 18 18 20 22 23 23 23 23 23 25 27 27 25 24 25 26 25 24 22 21 20 19 18 17 16 15 13 12 12 12 12 11 11 12 12 11 9 7 6 6 5 5 5 5 5 5 5 5 5 5 6 6 6 7 8 9 11 11 11 11 11 10 10 9 10 9 9 8 7 6 6 6 7 7 7 7
25 25 24 22 21 21 20 20 20 18 17 18 20 21 21 23 24 24 25 26 26 24 23 24 25 24 21 19 19 18 17 17 16 15 14 12 11 10 9 9 9 8 9 9 8 7 7 7 7 8 8 8 9 9 10 10 10 10 10 10 10 10 11 11 11 11 11 11 11 10 10 10 9 9 8 7 6 5 5 5 5 6 7 7 6
25 24 24 24 22 21 21 22 21 20 19 18 19 19 20 22 23 24 24 25 23 22 22 22 23 22 20 18 17 16 15 15 14 12 11 10 9 8 7 8 8 8 8 9 10 10 10 11 12 13 14 14 14 14 15 15 14 14 14 14 13 13 12 11 10 10 11 11 10 10 10 10 8 7 7 6 6 5 5 5 6 6 5 4 4
26 24 23 23 23 22 23 22 22 22 21 20 19 19 18 19 21 22 22 22 21 19 19 18 18 18 17 15 14 13 12 11 10 9 8 7 7 6 7 8 9 10 12 13 14 15 16 17 17 18 18 18 17 17 18 17 16 16 15 14 13 12 11 10 9 10 10 10 9 10 9 9 7 7 6 6 6 7 7 8 8 7 5 4 5
26 25 24 23 22 22 22 22 22 22 22 22 21 21 19 19 19 18 18 18 19 17 16 16 15 15 15 14 13 13 11 9 8 7 7 7 8 8 9 10 12 14 17 19 20 21 21 22 21 21 20 19 19 18 17 17 16 16 14 13 12 11 9 8 8 9 9 9 9 8 8 7 7 7 7 7 7 8 8 8 8 8 7 6 6
22 23 23 23 23 21 20 20 21 22 22 22 23 22 20 19 18 16 15 15 16 16 14 14 14 13 14 14 14 14 13 11 9 9 8 10 11 11 12 14 16 18 21 22 23 23 23 22 21 20 19 19 19 18 17 16 16 14 13 12 10 9 8 8 8 9 9 8 8 7 7 8 9 9 9 9 9 8 7 6 7 7 6 6 7
18 19 19 20 20 19 18 17 17 18 19 21 22 23 22 19 18 17 15 14 13 13 13 13 13 12 12 13 13 13 13 12 10 10 10 11 13 14 15 17 18 20 22 22 21 21 21 20 19 18 18 18 18 17 16 15 14 13 12 10 10 9 9 9 9 9 8 7 8 9 10 10 11 10 10 10 9 9 8 8 8 8 8 8 8
13 13 14 15 15 15 15 14 14 14 15 17 20 23 23 22 20 18 16 15 14 13 13 13 12 12 12 13 14 13 12 12 12 12 12 13 14 15 16 17 18 19 18 18 17 18 18 18 19 17 17 17 17 16 15 13 13 12 10 9 9 9 9 9 9 9 9 10 11 12 11 11 11 11 10 11 10 10 10 10 10 9 9 9 9
11 9 9 10 10 11 11 11 10 11 12 14 17 20 23 24 22 20 19 18 17 16 15 14 13 13 13 13 14 14 13 13 13 13 13 13 14 15 15 14 14 14 11 11 14 17 17 18 19 17 16 17 16 15 13 12 11 9 8 8 10 10 10 11 11 10 11 12 12 12 13 12 12 12 12 12 12 12 12 12 11 10 9 10 9
10 9 8 7 8 9 9 8 7 7 7 10 13 16 20 22 23 22 21 19 19 18 17 16 15 14 13 12 12 13 13 13 11 11 11 10 10 10 11 11 10 8 6 9 14 17 17 17 18 17 16 16 14 12 11 10 9 8 9 11 12 12 12 12 12 11 12 12 13 13 13 13 13 13 14 13 13 12 12 11 11 10 10 10 9
9 7 7 7 7 7 6 5 5 5 4 5 7 11 16 19 20 21 20 20 19 18 18 17 15 14 14 13 12 12 11 10 9 9 8 7 7 6 6 7 8 7 7 11 15 17 17 17 17 16 14 13 12 11 11 10 10 11 12 13 13 12 12 12 12 12 12 13 13 14 13 13 13 13 13 13 12 12 11 10 10 10 10 11 9
11 9 8 8 7 6 4 4 4 4 6 6 7 10 13 16 17 18 18 18 18 17 16 15 14 13 13 12 11 10 8 7 7 7 6 6 6 5 4 8 11 12 12 14 16 17 17 17 16 14 12 12 11 11 12 13 13 13 13 13 13 12 12 12 12 12 12 12 13 14 13 13 12 11 11 11 11 12 11 10 10 11 11 10 10
12 11 10 10 8 6 6 5 4 3 6 10 11 12 14 15 16 16 16 17 17 16 15 14 13 12 11 10 9 7 6 5 4 4 3 3 2 1 5 11 15 16 16 16 16 16 16 15 13 12 12 12 12 13 14 14 14 13 13 13 13 13 13 13 12 11 11 11 12 13 12 12 10 9 8 9 10 11 12 10 9 10 10 9 9
12 10 10 10 9 9 9 9 7 5 4 8 12 14 14 15 15 16 15 15 14 14 13 13 11 10 10 9 8 7 6 6 5 4 4 3 2 4 9 14 17 17 16 16 15 15 14 13 12 12 12 13 14 14 15 15 15 14 14 13 13 13 13 12 11 10 10 10 10 11 11 11 10 9 8 9 9 10 10 10 9 9 9 8 7
11 10 9 9 9 9 9 9 9 8 6 7 12 15 15 15 15 15 14 13 12 12 12 11 10 9 9 8 6 6 7 7 8 8 7 7 8 10 12 13 14 15 15 14 13 13 13 13 12 13 14 15 15 15 15 15 14 14 13 13 12 12 12 12 11 11 10 10 10 10 11 11 10 10 10 11 9 8 9 9 9 9 8 8 7
10 10 9 8 7 7 7 6 7 7 7 7 11 15 15 15 15 14 12 11 11 10 10 9 8 8 7 6 5 5 6 8 10 10 10 10 10 11 11 11 12 14 14 13 13 13 13 13 14 14 15 15 15 15 15 14 14 13 13 12 12 12 12 11 11 11 11 11 11 11 12 12 12 11 11 11 9 7 8 8 9 8 8 8 7
9 9 8 8 8 7 6 5 5 5 6 5 7 11 14 14 13 12 11 10 9 9 9 9 9 8 6 4 3 3 5 8 10 10 10 10 10 9 9 11 13 14 14 14 13 13 14 14 14 15 15 15 15 15 14 14 14 13 12 11 11 11 11 10 10 10 10 10 10 11 11 12 11 11 11 11 9 8 8 8 8 8 8 8 9
7 7 7 8 9 8 6 3 3 3 4 4 3 5 10 13 12 11 10 9 8 8 9 9 9 8 7 5 3 2 4 7 8 9 10 10 10 9 11 12 13 14 14 13 13 12 13 13 13 13 14 14 13 13 12 12 11 11 10 10 9 9 9 8 8 8 8 9 10 10 9 9 9 9 10 9 8 7 7 7 7 7 7 8 10
6 6 7 9 10 9 7 4 2 2 3 3 2 2 6 11 12 10 9 8 8 10 11 11 10 9 8 6 4 3 4 5 6 7 9 10 10 10 11 12 12 13 13 13 12 11 11 12 12 12 11 11 10 9 9 9 8 8 8 7 7 8 8 8 7 8 8 8 9 8 8 8 8 8 8 8 7 6 5 5 5 5 6 7 8
5 6 8 9 10 10 8 6 3 1 1 2 2 2 5 9 11 10 9 9 9 10 11 11 10 9 7 6 5 4 4 4 5 5 7 8 9 9 10 10 10 12 12 12 11 10 9 9 10 10 10 9 8 7 7 7 6 5 5 5 5 6 7 7 7 8 8 8 8 7 6 6 7 7 7 8 8 7 6 5 4 4 5 6 7
4 5 6 8 9 8 7 6 4 2 2 3 3 2 4 7 10 10 9 10 10 10 10 10 10 8 7 6 5 4 3 3 4 4 5 6 7 7 8 9 9 10 10 10 10 9 8 7 7 7 8 8 7 6 6 6 4 4 4 5 5 6 6 7 7 8 8 8 8 7 6 6 6 6 7 7 7 7 6 5 3 3 4 6 7
4 5 6 7 8 7 6 5 4 3 3 5 5 3 2 5 9 10 10 10 10 10 9 10 10 8 7 7 6 5 3 3 4 4 4 5 6 7 7 8 8 8 8 8 8 8 8 7 5 5 6 7 6 5 4 4 4 4 4 4 4 5 6 6 6 7 6 6 7 7 6 6 6 6 6 7 6 6 5 4 3 3 4 6 8
5 6 6 6 7 7 6 5 6 6 5 6 7 5 3 3 7 10 10 9 9 9 9 9 9 8 8 8 7 6 4 4 4 4 4 5 6 6 7 7 7 7 7 8 8 8 8 7 5 5 5 5 5 4 4 3 3 3 3 3 3 4 5 5 5 5 5 5 5 6 6 6 7 7 7 7 6 6 6 5 4 4 4 6 7
6 7 7 6 6 7 7 6 6 8 8 8 7 6 5 4 6 9 10 9 8 7 7 6 6 5 7 9 9 7 5 4 3 3 3 4 5 6 6 6 6 6 6 7 8 8 7 6 5 5 5 4 4 3 2 2 2 2 2 2 2 3 3 3 3 3 3 4 5 6 6 7 8 9 9 8 8 8 7 7 7 6 5 4 5
8 8 7 5 5 6 7 6 6 7 9 9 9 8 8 6 7 9 11 11 10 8 6 4 3 1 4 7 10 10 7 5 4 3 2 2 4 5 5 5 5 5 5 6 7 7 6 5 4 3 2 2 2 2 2 2 2 2 2 2 2 2 2 2 2 3 3 4 6 7 8 9 11 11 10 9 8 8 8 8 8 7 5 4 3
8 7 6 5 6 7 7 7 7 8 8 9 10 11 10 10 9 10 10 10 10 9 7 4 3 4 6 6 9 11 11 9 7 4 3 2 3 4 4 4 5 5 5 5 5 5 4 3 2 1 0 1 1 2 2 2 2 2 2 2 1 1 2 2 3 4 5 6 7 8 9 11 12 11 9 7 6 7 7 8 7 6 5 4 3
7 7 7 7 9 10 9 7 7 8 9 9 11 12 12 12 11 11 10 10 9 8 7 5 5 6 7 6 7 10 12 12 10 7 4 3 3 4 4 4 4 5 5 5 5 4 3 3 2 1 1 1 1 2 2 3 3 3 3 2 2 2 3 4 5 6 6 7 8 9 10 11 10 9 6 4 5 6 7 6 5 4 3 3 3
7 8 8 10 11 11 8 6 6 8 8 7 7 10 13 14 14 13 12 12 11 9 7 7 7 7 6 5 5 9 13 14 12 10 7 5 4 5 5 5 5 5 5 5 4 4 4 3 2 2 2 2 2 3 3 3 2 2 2 2 3 4 5 6 7 7 8 9 9 9 9 9 8 6 4 4 5 6 5 3 2 2 2 0 1
Wind_Direction
243 233 236 239 237 229 224 222 219 219 219 216 214 209 204 203 204 203 199 197 195 193 195 197 197 198 198 199 195 192 192 191 193 198 202 206 210 212 211 209 209 212 214 216 213 212 213 212 212 210 209 210 207 208 213 216 213 207 201 196 197 205 202 192 176 165 195 210 216 216 219 215 210 209 208 206 206 209 211 212 214 215 215 214 215
301 264 250 241 236 233 229 222 217 217 219 220 213 204 201 203 205 200 197 197 196 193 194 196 197 198 197 197 194 192 193 192 193 196 198 204 210 211 211 211 211 211 213 216 211 209 213 212 207 203 203 205 204 206 212 212 211 208 203 201 204 211 213 206 195 179 189 203 210 216 220 218 215 213 212 211 211 212 215 218 220 220 220 221 224
338 316 289 261 241 233 228 221 216 212 213 217 214 204 200 200 200 199 199 199 196 193 194 195 197 197 197 197 196 194 196 196 196 197 199 203 207 208 210 212 211 210 212 214 210 210 213 209 204 201 199 200 201 202 206 207 210 212 210 209 211 215 219 218 212 201 196 201 209 216 218 218 219 217 216 216 216 219 223 227 229 227 225 227 229
328 314 299 282 261 245 232 222 220 214 208 212 214 208 202 198 198 201 201 197 194 193 193 193 194 195 197 198 197 196 197 199 199 198 200 201 201 201 205 209 210 210 212 213 211 213 213 207 205 203 197 198 202 200 198 203 210 217 219 219 220 221 222 223 223 218 208 204 210 216 218 219 220 219 219 219 220 225 230 233 236 236 234 233 234
314 301 287 276 268 260 248 233 228 225 216 215 218 211 204 200 199 200 199 195 193 192 191 190 191 194 197 196 194 195 198 200 201 199 198 200 199 200 202 205 209 211 213 216 214 214 213 210 209 206 198 197 201 201 201 200 206 218 225 226 226 226 228 227 225 223 220 216 212 213 215 218 219 219 221 222 223 227 232 235 238 241 241 240 241
316 301 285 273 266 263 256 240 234 237 230 221 222 215 205 202 198 196 197 194 191 191 191 191 191 193 195 194 194 198 199 198 198 196 197 199 199 200 201 204 210 214 217 218 216 214 211 211 211 207 200 195 193 198 205 200 201 215 223 224 225 228 232 231 226 222 223 223 216 211 212 215 217 218 222 225 228 230 232 236 240 243 244 245 246
328 311 291 280 272 265 258 244 236 237 229 218 218 215 208 204 197 194 196 194 191 192 192 190 191 194 195 192 194 199 198 196 195 194 196 201 204 205 205 208 212 218 223 220 218 216 210 208 204 193 192 193 189 193 203 201 202 211 214 216 223 228 227 223 219 216 217 217 215 212 212 214 215 218 224 229 233 236 236 238 241 244 245 247 250
344 332 311 288 274 265 257 250 244 237 224 214 213 211 206 199 192 193 197 193 191 192 191 190 192 195 193 188 188 193 196 198 194 189 190 198 206 207 208 211 214 219 224 217 216 216 210 208 196 179 183 194 191 187 186 186 191 196 199 207 218 220 211 206 208 209 211 211 211 211 212 215 217 219 225 230 232 237 240 241 244 250 252 252 255
357 351 342 314 281 265 257 255 254 242 225 214 208 203 201 194 187 191 199 198 192 188 188 192 193 192 189 185 185 188 192 195 188 180 180 185 189 192 196 204 211 216 216 206 205 208 204 200 182 173 183 192 185 177 166 166 180 186 188 197 206 204 200 200 201 202 205 208 210 209 210 215 218 218 222 228 232 238 243 243 248 257 262 261 263
4 2 359 348 310 270 257 256 254 241 224 215 204 196 196 192 186 189 197 203 197 187 187 192 191 187 185 184 186 186 186 188 184 179 179 180 178 179 187 199 208 210 204 191 188 188 181 172 166 170 180 178 165 154 144 142 155 163 163 166 176 182 185 187 193 199 203 205 209 215 219 224 229 229 233 243 251 259 262 258 257 263 267 270 274
7 8 7 5 352 295 257 250 247 233 217 207 197 191 192 191 186 187 193 201 199 189 187 191 189 187 186 184 187 186 184 185 185 184 186 187 188 188 191 200 201 197 188 176 168 165 162 159 161 165 164 155 146 137 131 128 129 131 129 128 131 134 139 138 141 165 179 166 155 170 196 214 231 234 241 256 270 279 281 275 271 271 273 276 280
10 12 13 12 11 346 262 239 237 229 211 197 190 187 188 188 185 185 190 195 194 187 187 189 187 187 186 185 187 187 184 185 187 189 190 192 196 198 197 198 191 182 176 169 159 156 156 154 152 153 148 144 141 137 131 125 123 123 121 120 119 117 121 120 114 117 125 119 111 107 97 83 80 82 62 321 307 310 305 293 284 280 279 275 273
14 15 17 16 15 8 313 232 228 225 208 191 187 187 185 184 182 182 187 190 186 182 185 186 184 184 183 185 187 187 185 185 187 189 189 190 194 197 196 191 182 175 172 169 163 160 159 155 150 147 143 141 141 139 137 132 128 125 121 118 114 110 110 109 106 110 112 112 115 103 23 16 44 40 346 319 308 306 303 299 298 294 286 280 277
17 17 19 19 19 15 6 285 222 214 200 185 182 182 179 178 176 177 181 182 177 176 178 178 177 177 178 181 183 183 183 185 187 187 186 184 186 188 186 181 174 169 167 167 166 164 163 160 155 148 145 144 144 142 142 140 137 134 131 129 123 111 103 93 88 89 81 79 86 79 40 358 360 358 333 317 307 304 300 297 301 301 296 290 285
20 18 20 22 23 21 19 21 116 196 188 178 173 172 171 170 169 171 172 171 169 170 170 169 167 166 167 171 174 174 175 178 181 181 179 178 178 178 175 169 164 160 157 158 158 157 157 156 152 147 144 143 142 139 139 141 140 137 133 132 130 123 117 105 87 67 43 37 38 36 16 346 338 333 325 319 311 308 307 303 303 300 296 292 288
22 21 21 22 25 29 31 34 48 91 156 163 159 158 159 159 160 163 161 158 157 157 157 156 155 152 152 156 160 161 160 165 171 172 174 177 175 169 163 159 155 153 149 147 146 144 144 144 144 143 141 139 137 137 138 141 144 139 133 129 126 123 119 110 98 73 30 15 2 354 340 330 326 320 319 318 314 312 309 305 304 300 296 294 293
22 24 23 22 26 34 40 43 50 65 92 125 135 139 141 143 147 151 148 141 138 137 139 140 140 140 141 143 147 148 146 150 159 162 166 172 172 166 161 156 153 151 146 144 144 142 140 140 140 143 144 141 138 138 141 147 149 143 138 138 140 138 125 112 101 78 42 7 343 331 320 316 317 315 318 322 321 319 314 310 310 304 300 300 296
20 27 29 27 29 38 46 48 52 62 70 86 109 122 127 128 132 136 133 128 124 122 125 128 127 128 131 133 136 138 137 139 147 153 159 165 167 165 162 154 148 145 143 141 140 139 139 138 137 139 142 143 144 144 146 153 154 148 148 158 169 172 159 155 175 184 22 343 339 342 336 335 336 336 346 352 352 353 349 342 331 313 306 306 300
17 27 34 35 35 40 50 54 56 63 69 74 89 108 116 120 124 126 122 119 117 115 116 118 116 114 116 121 126 130 133 135 141 146 149 153 155 155 153 147 137 133 134 131 127 127 131 131 129 127 129 135 144 147 141 140 144 143 151 174 206 246 252 255 256 258 266 279 312 358 23 39 43 43 36 29 25 24 22 15 3 344 328 320 313
22 31 40 43 40 42 50 58 62 69 77 81 84 94 106 115 121 122 118 113 111 109 108 108 107 105 107 110 114 117 123 128 136 142 143 144 145 145 146 142 134 129 130 130 132 140 144 145 148 147 140 135 136 138 135 129 124 125 197 254 272 276 277 286 287 281 282 297 6 32 47 58 58 56 48 39 34 33 31 25 20 14 3 349 336
34 38 45 48 46 43 48 56 63 71 84 93 93 93 97 103 110 115 115 110 103 98 97 99 98 97 98 102 103 103 108 114 122 133 140 144 147 150 152 150 146 150 155 154 159 162 159 159 166 174 180 178 173 180 202 250 283 290 295 293 283 271 261 261 272 277 292 95 96 92 87 76 63 55 46 36 33 32 30 27 23 18 16 14 6
39 41 47 52 52 49 49 55 61 70 84 97 100 99 100 102 103 107 110 110 104 97 93 93 92 89 89 91 93 95 99 105 110 115 124 134 145 159 170 173 177 184 176 163 159 160 159 158 160 167 180 190 201 221 237 253 262 266 270 266 254 241 213 204 213 164 119 112 109 102 90 73 57 48 40 33 30 28 24 22 20 16 15 16 13
40 41 45 51 54 54 54 56 60 66 76 90 99 102 106 108 106 104 106 107 106 100 95 94 93 90 86 86 88 89 91 97 102 106 109 116 124 134 144 148 157 170 167 157 153 154 153 150 149 154 166 173 178 187 190 197 202 200 197 188 166 150 146 142 128 118 113 106 98 88 75 61 50 42 36 29 26 24 19 16 16 12 8 6 2
43 43 44 48 53 56 59 61 64 66 70 80 91 98 103 106 105 104 103 102 99 95 92 91 91 87 83 83 84 86 87 89 94 98 101 109 116 121 129 137 146 159 161 153 149 150 149 147 145 148 151 148 147 145 137 134 133 132 132 129 126 126 125 120 116 113 105 91 80 72 62 51 42 35 29 22 18 13 2 357 359 360 359 1 1
44 44 45 48 52 56 61 65 69 72 74 80 85 90 97 101 101 101 101 100 98 96 95 96 95 91 87 85 84 85 86 84 85 88 94 101 109 117 129 140 147 156 158 151 146 146 145 141 137 135 134 132 130 127 121 117 116 116 116 116 115 116 115 113 112 104 91 78 69 60 50 40 31 24 17 8 1 355 341 332 341 354 0 4 6
42 43 46 49 53 56 59 62 67 73 77 83 88 91 95 100 102 103 104 101 98 97 97 97 96 92 87 83 81 80 79 79 82 87 93 102 111 120 133 141 145 149 147 141 138 135 132 129 128 128 127 126 125 120 115 112 111 110 109 109 109 108 105 103 97 87 76 66 54 43 36 29 22 16 10 359 353 355 356 352 353 360 4 5 12
41 41 42 46 51 57 59 59 63 69 73 77 85 92 98 104 107 108 107 104 100 100 99 98 96 92 89 85 84 82 81 84 91 95 99 112 126 138 145 146 144 143 138 134 133 130 127 126 127 127 126 124 121 116 113 111 109 106 104 103 101 97 91 84 77 71 63 50 38 31 25 20 18 15 12 8 8 15 19 14 8 8 3 356 4
45 43 41 41 45 54 61 63 63 66 69 73 77 81 89 100 109 110 110 109 108 106 104 104 105 108 110 109 107 106 106 107 110 113 124 140 146 147 148 145 142 139 136 132 130 128 127 127 126 125 124 120 116 112 111 108 105 102 99 96 91 85 78 69 60 55 47 37 29 26 24 29 36 36 33 35 35 33 29 19 12 11 5 0 10
49 46 43 41 41 45 55 64 69 70 71 73 74 74 77 88 100 108 113 116 115 114 113 114 115 118 122 124 124 123 121 121 123 127 137 146 147 146 143 141 140 137 134 133 132 129 128 126 123 121 120 116 111 108 106 104 101 98 93 86 79 71 62 52 46 46 41 34 33 42 51 59 61 56 51 51 47 40 34 28 25 25 27 37 51
49 49 46 44 42 40 43 53 66 73 75 78 79 80 78 79 86 96 105 110 112 114 116 119 122 126 127 125 122 120 117 115 114 116 121 129 137 139 137 137 138 136 135 137 136 130 125 121 117 115 114 110 106 104 101 99 96 90 81 72 64 57 51 49 50 51 51 52 61 69 71 70 67 62 56 56 56 53 49 47 46 47 50 54 59
42 49 51 50 47 43 39 40 51 65 75 82 85 87 88 84 82 87 97 103 104 105 106 110 117 124 126 122 116 111 107 104 103 102 106 115 123 128 129 132 134 134 139 143 135 125 121 117 112 111 110 106 103 101 98 93 87 79 71 65 62 60 61 65 70 72 72 74 76 74 70 68 68 66 64 65 66 62 57 53 50 48 49 47 43
31 37 51 58 58 54 47 40 40 53 70 83 89 93 95 93 89 88 92 96 98 97 97 98 101 105 110 113 113 109 103 100 100 101 105 110 115 119 122 125 127 130 144 151 130 118 118 117 113 111 109 104 101 97 91 85 77 73 75 78 79 79 79 82 85 84 80 77 76 75 74 74 75 74 71 68 65 60 57 54 52 51 51 45 38
31 29 37 52 65 68 66 58 49 49 63 80 91 98 100 100 99 97 95 94 93 91 90 88 87 89 91 94 100 103 104 104 103 103 104 106 111 117 120 122 122 124 148 149 129 119 118 117 115 113 109 103 98 91 84 79 79 86 94 94 91 89 87 87 89 87 83 81 79 80 79 76 74 73 69 64 60 56 52 51 54 57 54 43 37
32 34 37 47 55 58 67 77 81 83 88 91 99 106 106 107 108 107 104 99 94 90 89 87 85 83 84 85 88 94 100 101 99 97 97 95 97 107 121 128 128 129 139 137 127 122 122 120 117 115 110 103 96 90 88 90 96 100 100 96 93 94 95 95 94 89 85 82 77 72 70 68 67 67 63 58 54 51 48 50 57 59 54 46 46
38 49 53 54 50 45 57 89 107 122 141 152 146 131 123 121 119 116 113 109 103 98 95 92 87 83 82 83 86 89 90 91 90 90 94 97 96 96 114 124 123 122 124 125 123 122 123 121 119 118 112 104 99 94 94 97 101 103 102 100 100 102 100 96 91 85 81 76 70 67 66 65 63 61 57 53 53 52 51 53 56 54 50 47 51
41 52 51 49 50 53 68 88 99 129 163 168 162 150 141 135 129 124 120 118 114 110 106 102 97 91 85 81 80 81 81 87 94 98 105 120 137 154 129 124 120 117 117 120 122 123 122 120 118 115 110 103 100 99 100 104 106 107 106 104 101 99 93 87 84 80 76 75 74 71 65 58 55 56 55 53 57 58 57 57 57 50 44 43 45
36 43 43 47 56 64 71 79 80 80 136 166 166 159 151 144 137 132 130 128 125 122 121 119 113 105 98 89 81 78 80 85 92 98 102 112 140 142 130 125 121 117 116 119 122 123 120 116 114 112 109 109 108 106 106 106 105 104 103 100 95 92 88 84 82 79 77 79 78 67 54 48 51 55 50 47 55 62 60 55 51 44 39 38 38
32 38 42 48 59 64 67 74 77 75 90 147 166 168 161 153 148 144 141 142 142 139 137 135 127 114 110 110 104 97 94 89 86 91 98 103 111 119 124 126 125 122 120 120 122 123 120 118 118 117 115 114 112 109 106 104 102 101 100 97 94 92 90 88 86 82 82 84 76 61 51 51 57 55 45 42 50 60 54 43 38 35 31 28 26
25 35 39 39 40 43 47 62 77 77 83 126 164 174 171 162 158 158 160 162 163 162 158 150 136 118 113 122 130 123 105 87 80 87 103 112 112 114 119 124 128 129 126 123 122 124 123 123 122 120 115 112 110 107 105 104 102 102 101 101 100 99 96 93 89 85 84 82 74 63 57 57 57 53 46 44 48 50 42 33 30 31 29 24 23
12 27 34 29 19 14 19 39 65 72 74 98 152 178 181 176 170 169 173 176 177 179 173 157 138 121 112 122 143 136 101 85 77 81 99 118 122 117 118 124 129 131 130 127 125 124 123 121 119 115 112 111 108 106 105 104 104 104 105 104 102 98 94 91 86 82 79 75 70 66 62 57 55 53 50 49 48 47 44 39 37 38 35 29 22
352 11 22 16 7 1 359 10 37 48 54 67 106 177 190 189 183 177 179 180 173 165 159 148 134 124 115 115 118 102 91 92 87 83 95 116 127 124 123 128 134 135 133 130 127 124 120 117 115 112 112 112 110 107 105 105 106 106 105 103 100 94 90 87 82 76 71 67 65 64 60 55 53 54 53 53 52 48 46 45 44 41 33 26 21
325 349 1 359 353 348 338 324 327 5 22 23 8 236 207 198 191 184 180 175 165 158 156 150 141 131 121 115 116 110 99 102 105 101 105 116 123 123 124 130 137 141 140 135 128 123 117 113 112 112 113 114 113 112 109 108 107 104 99 98 98 93 85 79 74 68 64 63 63 61 56 50 48 47 44 42 40 35 29 27 29 26 16 11 13
308 335 349 348 345 342 337 327 314 297 320 339 331 259 222 207 197 190 185 177 170 168 165 160 152 143 132 125 129 133 118 109 115 121 121 123 122 119 120 125 134 141 144 141 134 130 125 118 113 113 116 118 119 119 118 114 108 100 92 94 100 95 85 76 68 61 56 56 57 56 51 43 36 31 26 24 23 20 14 6 3 2 356 352 356
321 333 347 347 344 344 342 335 325 299 285 315 334 298 234 219 204 193 187 183 181 180 177 172 166 159 154 151 149 143 121 108 115 125 126 126 125 119 114 114 120 132 141 145 144 143 144 140 129 124 126 129 130 127 124 118 107 98 95 96 98 95 86 76 65 55 50 47 46 43 37 26 18 13 11 10 9 7 7 6 1 354 350 348 353
343 340 347 345 341 342 341 327 310 287 278 299 315 321 277 233 213 200 193 191 191 191 191 190 185 180 178 176 174 168 151 128 123 128 129 127 125 123 120 115 112 117 131 145 155 161 168 173 166 149 142 142 140 132 126 116 101 93 94 94 92 87 80 72 62 51 43 37 33 31 23 12 6 2 0 0 358 354 357 4 3 353 349 347 350
338 339 343 343 339 342 343 323 294 274 273 290 300 299 290 247 218 208 203 199 197 201 206 204 200 203 208 204 194 190 187 168 142 129 134 134 127 123 126 127 124 124 134 148 159 167 175 180 174 157 145 140 135 130 123 109 88 78 77 78 76 69 61 57 52 43 33 22 18 17 9 1 357 351 342 339 338 334 332 335 332 332 339 342 342
346 347 350 348 344 347 349 336 299 275 268 275 284 282 275 254 224 216 215 213 210 218 227 217 202 213 230 226 219 216 213 201 178 143 132 136 130 123 125 134 140 143 149 155 160 164 167 168 161 147 134 127 119 112 101 79 57 48 45 46 46 41 40 41 40 33 21 6 360 356 348 344 341 335 325 318 315 312 312 314 314 313 319 330 332
358 359 357 349 343 342 347 349 334 302 277 269 272 272 269 260 241 228 227 226 226 236 247 234 207 261 279 250 235 231 226 217 204 183 161 157 144 131 127 136 150 158 159 158 157 158 159 159 155 140 121 108 80 55 41 29 25 25 21 20 16 9 3 2 352 344 339 336 332 330 329 329 328 325 318 310 303 303 308 311 310 306 298 294 304
358 1 0 357 350 341 333 329 330 322 300 279 269 267 268 269 260 245 237 236 240 250 259 260 277 309 310 281 250 237 230 224 218 208 194 193 183 162 147 142 151 161 163 159 155 155 156 160 166 159 119 19 16 28 38 48 53 52 43 34 16 340 313 306 310 313 316 319 319 321 324 326 325 322 318 309 299 302 311 315 316 313 297 271 262
1 5 4 0 354 344 329 313 316 319 310 290 271 262 263 269 268 259 253 254 257 260 255 249 265 289 299 289 264 246 235 228 225 218 207 202 203 197 187 169 159 160 162 159 157 158 157 157 158 149 114 78 75 82 84 81 74 64 50 30 350 317 305 305 309 310 312 315 317 319 322 325 324 323 320 309 302 310 317 318 320 324 307 264 236
8 9 2 357 354 345 327 321 349 360 351 328 294 269 262 264 267 268 266 265 266 265 249 230 236 262 285 297 279 255 241 233 229 225 217 209 209 212 210 201 187 175 166 159 153 148 142 137 130 125 120 118 119 115 103 87 70 37 353 324 310 306 303 302 302 300 300 304 308 311 315 320 324 324 319 312 316 323 325 319 317 337 344 250 178